AO-07 1 07530U 74089B 25312.25133094 -.00000054 00000-0 -50232-4 0 9990 2 07530 101.9977 318.1542 0012126 191.8736 179.5815 12.53693057332838 UO-11 1 14781U 84021B 25312.67965492 .00002446 00000-0 25945-3 0 9991 2 14781 97.7764 276.2509 0007352 181.5125 178.6072 14.89965364224288 AO-27 1 22825U 93061C 25312.10485079 .00000211 00000-0 97644-4 0 9993 2 22825 98.7193 14.2822 0008934 35.5611 324.6165 14.30856830675386 FO-29 1 24278U 96046B 25312.61496829 .00000010 00000-0 48890-4 0 9990 2 24278 98.5492 186.3245 0349170 308.7070 48.3320 13.53259260443333 GO-32 1 25397U 98043D 25312.49702275 .00000135 00000-0 78425-4 0 9998 2 25397 98.9890 294.9235 0002165 112.4941 247.6466 14.24361924419916 ISS 1 25544U 98067A 25312.42041502 .00013418 00000-0 24734-3 0 9991 2 25544 51.6332 312.3676 0004093 47.8963 312.2373 15.49452868537539 NO-44 1 26931U 01043C 25312.78860913 .00000361 00000-0 16600-3 0 9990 2 26931 67.0496 94.2743 0007214 271.8084 88.2191 14.31824071258890 SO-50 1 27607U 02058C 25312.80226468 .00002855 00000-0 36060-3 0 9994 2 27607 64.5533 90.4722 0070144 302.8760 56.5607 14.82191461231783 CO-55 1 27844U 03031E 25312.23447985 .00000557 00000-0 26077-3 0 9999 2 27844 98.6777 318.5812 0010674 105.5962 254.6396 14.24133971160226 CO-57 1 27848U 03031J 25312.46547213 .00000446 00000-0 21553-3 0 9994 2 27848 98.6805 318.6983 0010428 121.0163 239.2041 14.23449008159971 RS-22 1 27939U 03042A 25312.89315512 .00002408 00000-0 38453-3 0 9996 2 27939 98.3371 126.1971 0010339 245.0551 251.3645 14.72818873183117 CO-58 1 28895U 05043F 25312.65313353 .00003589 00000-0 58327-3 0 9999 2 28895 98.2708 99.1640 0014365 181.0448 179.0730 14.71684017 69306 CO-65 1 32785U 08021C 25312.83592861 .00009681 00000-0 65999-3 0 9996 2 32785 97.8052 285.4664 0011446 62.3313 297.9074 15.06404316951987 CO-66 1 32791U 08021J 25312.44259770 .00022733 00000-0 95108-3 0 9997 2 32791 97.7443 296.4530 0004899 38.0842 322.0740 15.23579404953579 RS-30 1 32953U 08025A 25312.82910685 .00000016 00000-0 44334-4 0 9998 2 32953 82.4994 132.5162 0019923 73.4048 286.9218 12.43170320792311 SRMSAT 1 37841U 11058D 25312.01833955 .00000534 00000-0 14602-3 0 9993 2 37841 19.9730 318.0946 0011542 291.1423 87.7761 14.11493085726535 ZACUBE-1 1 39417U 13066B 25312.61043965 .00009510 00000-0 78520-3 0 9997 2 39417 97.7990 269.1274 0041211 263.5744 96.0785 14.98532084647666 Delfi-N3xt 1 39428U 13066N 25312.72658777 .00013719 00000-0 13091-2 0 9991 2 39428 97.8317 228.8538 0078740 217.6432 141.9260 14.91082471641720 GOMX-1 1 39430U 13066Q 25312.83244359 .00003363 00000-0 51710-3 0 9998 2 39430 97.6622 162.0788 0132237 65.0174 296.4701 14.68355788637567 LO-74 1 39440U 13066AA 25312.79729353 .00009856 00000-0 95656-3 0 9996 2 39440 97.8661 256.5358 0061765 38.7235 321.8387 14.91399778644112 AO-73 1 39444U 13066AE 25312.62628567 .00013506 00000-0 93692-3 0 9992 2 39444 97.8032 275.5165 0037370 230.7839 129.0068 15.05145582646433 DTUSAT-2 1 40030U 14033W 25311.91016482 .00013459 00000-0 81139-3 0 9998 2 40030 98.0727 291.4435 0006586 270.9023 89.1450 15.10884014619227 EO-80 1 40032U 14033Y 25312.18729104 .00011555 00000-0 69600-3 0 9996 2 40032 98.0614 291.1789 0007019 192.9177 167.1873 15.10953919619247 LILACSAT-2 1 40908U 15049K 25312.84151419 .00022897 00000-0 51503-3 0 9991 2 40908 97.4952 337.2083 0007565 346.2094 13.8945 15.43299669561675 IO-86 1 40931U 15052B 25151.18580175 .00001241 00000-0 78118-4 0 9996 2 40931 6.0006 24.0987 0012733 338.8432 21.1169 14.78805930523159 Horyu-4 1 41340U 16012D 25312.78196812 .00058976 00000-0 11321-2 0 9992 2 41340 30.9927 182.4383 0004690 251.2021 108.8119 15.46668960536288 Lapan A3 1 41603U 16040E 25312.84668146 .00005923 00000-0 19879-3 0 9997 2 41603 97.1429 311.6457 0012793 85.8914 274.3790 15.31153848521078 CAS-2T 1 41847U 16066G 25312.46467383 .00002185 00000-0 31462-3 0 9992 2 41847 98.4071 25.5401 0345372 78.8492 285.1317 14.44008320472932 TechnoSat 1 42829U 17042E 25312.44696653 .00005822 00000-0 43483-3 0 9997 2 42829 97.4052 114.1462 0020307 123.9978 236.3181 15.03012426453521 AO-91 1 43017U 17073E 25312.61221097 .00016820 00000-0 80622-3 0 9992 2 43017 97.4976 179.6032 0164440 8.1767 352.2080 15.07751156432091 S-Net D 1 43186U 18014G 25312.65147014 .00010079 00000-0 56217-3 0 9998 2 43186 97.5479 214.0301 0010763 65.7604 294.4751 15.13716331425364 S-Net B 1 43187U 18014H 25312.52677895 .00010431 00000-0 58198-3 0 9992 2 43187 97.5487 213.8854 0011351 61.8865 298.3512 15.13690201425347 S-Net A 1 43188U 18014J 25312.45300352 .00008754 00000-0 48881-3 0 9999 2 43188 97.5495 213.9834 0011250 62.6283 297.6092 15.13715781425332 S-Net C 1 43189U 18014K 25312.66184016 .00010394 00000-0 57978-3 0 9990 2 43189 97.5513 214.2301 0012561 55.1904 305.0507 15.13686516423910 Ten-Koh 1 43677U 18084G 25312.72792009 .00005208 00000-0 40771-3 0 9994 2 43677 98.0678 130.9956 0009306 122.8254 237.3867 15.01463793383067 PO-101 1 43678U 18084H 25312.81571828 .00003619 00000-0 30226-3 0 9997 2 43678 98.1079 134.9158 0007871 129.9619 230.2295 14.99193097383183 QO-100 1 43700U 18090A 25312.82182182 .00000145 00000-0 00000 0 0 9996 2 43700 0.0031 70.0398 0002795 198.3524 101.5274 1.00273419 25466 MinXSS-2 1 43758U 18099A 25312.62454382 .00037474 00000-0 12037-2 0 9991 2 43758 97.4842 19.5799 0009632 344.7707 15.3243 15.32146792380194 AO-95 1 43770U 18099N 25312.58997444 .00019473 00000-0 88579-3 0 9995 2 43770 97.4720 9.1464 0010812 49.2129 311.0042 15.20711276379625 SNUSat 2 1 43782U 18099AA 25312.57515450 .00015167 00000-0 76095-3 0 9996 2 43782 97.4398 4.5800 0011003 354.4911 5.6200 15.17360958379529 SnugLite 1 43784U 18099AC 25312.58559054 .00019236 00000-0 86697-3 0 9997 2 43784 97.4211 4.5231 0003065 14.5237 345.6087 15.21078757379716 ITASat 1 1 43786U 18099AE 25312.56647882 .00013666 00000-0 72660-3 0 9990 2 43786 97.4368 3.6002 0014596 45.4487 314.7935 15.15298234379455 EAGLET 1 1 43790U 18099AJ 25312.59691125 .00007938 00000-0 48316-3 0 9993 2 43790 97.4571 3.0150 0012477 34.7126 325.4916 15.10611482379009 ESEO 1 43792U 18099AL 25312.73698473 .00004066 00000-0 30371-3 0 9995 2 43792 97.4282 354.3027 0012390 9.8052 350.3413 15.03283991378673 JO-97 1 43803U 18099AX 25312.58825125 .00025655 00000-0 10192-2 0 9992 2 43803 97.4466 10.5454 0006079 343.2344 16.8692 15.25287307379900 Suomi 100 1 43804U 18099AY 25312.61488613 .00020294 00000-0 88754-3 0 9998 2 43804 97.4534 9.3639 0010765 344.8975 15.1938 15.22050392379793 ISAT 1 43879U 18111D 25312.56148339 .00057747 00000-0 15147-2 0 9995 2 43879 97.5890 230.9856 0009408 39.3026 320.8900 15.38415516376982 UWE-4 1 43880U 18111E 25312.82743016 .00036624 00000-0 11767-2 0 9994 2 43880 97.5833 228.4751 0012669 43.5973 316.6267 15.32111063376880 Sparrow 1 43881U 18111F 25312.52733191 .00059268 00000-0 14602-2 0 9995 2 43881 97.6072 234.5082 0009086 67.2143 293.0062 15.40329973377098 Prox-1 1 44339U 19036A 25312.76377650 .00020214 00000-0 23416-2 0 9993 2 44339 23.9946 139.5689 0007563 14.0895 345.9813 14.83899235340616 Taurus 1 1 44530U 19059C 25312.84462240 .00013026 00000-0 22611-2 0 9999 2 44530 98.6226 99.8551 0008792 279.0021 81.0187 14.68312833326268 Duchifat 3 1 44854U 19089C 25311.82399392 .00305527 00000-0 19006-2 0 9999 2 44854 36.9310 100.0503 0008621 22.6306 337.4839 15.75093588326586 TO-108 1 44881U 19093C 25312.83153850 .00002035 00000-0 23859-3 0 9993 2 44881 97.7791 25.2174 0015144 91.7883 268.5067 14.85983209318688 FloripaSat 1 1 44885U 19093G 25312.84387409 .00011632 00000-0 92381-3 0 9996 2 44885 97.8069 40.8888 0012022 77.4702 282.7866 15.00580729319560 RS-44 1 44909U 19096E 25312.77102687 .00000015 00000-0 25202-4 0 9993 2 44909 82.5180 126.1837 0216603 299.8637 58.1095 12.79745301274158 SALSAT 1 46495U 20068K 25312.75973230 .00014095 00000-0 55869-3 0 9998 2 46495 97.8772 298.2246 0010905 5.4820 354.6534 15.25466239281708 CSS (TIANHE-1) 1 48274U 21035A 25312.83194167 .00042043 00000-0 49295-3 0 9993 2 48274 41.4657 222.5840 0005261 347.1900 12.8804 15.60711560258735 TUBIN 1 48900U 21059X 25312.82336927 .00251716 00000-0 10408-2 0 9998 2 48900 97.6699 136.5608 0001668 1.7517 358.3758 15.85208853243913 CUTE 1 49263U 21088D 25312.52413459 .00037927 00000-0 55405-3 0 9999 2 49263 97.4383 33.9123 0006147 48.4648 311.7132 15.55535422227975 TeikyoSat 4 1 49396U 21102B 25312.83925561 .00004305 00000-0 28022-3 0 9998 2 49396 97.3942 345.7087 0011649 338.4679 21.6059 15.08407782219492 Z-Sat 1 49399U 21102E 25312.85496087 .00008126 00000-0 42563-3 0 9990 2 49399 97.3624 349.8196 0015920 298.2002 61.7623 15.15950732220037 KOSEN 1 1 49402U 21102H 25312.54275146 .00013535 00000-0 58025-3 0 9992 2 49402 97.3515 354.1550 0013259 265.8215 94.1506 15.22788559220396 HO-113 1 50466U 21131B 25312.83643706 .00001021 00000-0 33109-3 0 9992 2 50466 98.5069 41.4281 0004839 51.7740 308.3884 14.41038699203372 SNUGLITE 2 1 52899U 22065F 25312.34991519 .00002046 00000-0 40217-3 0 9991 2 52899 98.1908 93.0861 0007467 6.2569 353.8725 14.63684539178681 UmKA 1 (RS40S) 1 57172U 23091G 25312.79069993 .00011253 00000-0 56336-3 0 9990 2 57172 97.5383 7.4100 0014236 161.5876 198.5876 15.17477588130541 CubeBel-2 (EU11S) 1 57175U 23091K 25312.82793022 .00018662 00000-0 79866-3 0 9998 2 57175 97.5383 9.6454 0011663 163.9955 196.1652 15.22797986130690 ENSO 1 58470U 23185J 25312.86900916 .08388928 24835-5 96914-3 0 9990 2 58470 97.3304 36.0765 0010794 270.9690 89.0371 16.36702678108938 SONATE-2 1 59112U 24043Q 25312.62421833 .00039593 00000-0 90826-3 0 9990 2 59112 97.5322 87.6721 0008850 289.6056 70.4235 15.42587266 93713 MO-122 1 60209U 24125G 25312.13351572 .00037491 00000-0 83627-3 0 9994 2 60209 97.2563 162.5455 0014734 316.2714 43.7366 15.43360433 75263 GRBBeta 1 60237U 24128C 25312.58987088 .00008692 00000-0 61419-3 0 9990 2 60237 61.9910 268.9769 0057114 89.3748 271.3888 15.04246488 73054 Curium One 1 60242U 24128H 25312.59070591 .00016622 00000-0 10478-2 0 9999 2 60242 61.9803 264.6235 0056893 86.1220 274.6375 15.07959599 73138 ROBUSTA-3A 1 60243U 24128J 25312.44748859 .00013236 00000-0 85183-3 0 9997 2 60243 61.9876 266.5153 0056894 83.4844 277.2722 15.07351996 73099 CatSat 1 60246U 24125J 25312.53698795 .00048767 00000-0 13043-2 0 9992 2 60246 97.2372 160.3576 0034579 271.4993 88.2291 15.37285260 73268 HYPERVIEW-1G (RS66S) 1 61772U 24199AP 25312.89245083 .00053074 00000-0 11462-2 0 9995 2 61772 97.3245 181.9853 0012019 15.1274 345.0331 15.44282245100381 AO-123 1 61781U 24199AY 25312.89217225 .00015025 00000-0 50198-3 0 9996 2 61781 97.3279 178.7296 0015881 23.4775 336.7188 15.30991576100163 ZIMSAT 2 1 61783U 24199BA 25312.86814289 .00162652 00000-0 19587-2 0 9993 2 61783 97.3162 184.4917 0009236 15.7336 344.4206 15.60221212103700 HADES-R (SO-124) 1 62690U 25009CK 25312.29366013 .00129633 00000-0 24722-2 0 9995 2 62690 97.3946 33.8872 0003190 256.2160 103.8735 15.47679176 45435 HYDRA-T 1 62692U 25009CM 25311.65382386 .00147067 00000-0 27337-2 0 9993 2 62692 97.3945 33.3691 0003058 254.4537 105.6376 15.48352850 45340 JINJUSat 1B 1 63210U 25052A 25312.68568855 .00025429 00000-0 10157-2 0 9998 2 63210 97.4196 205.0908 0005220 122.1956 237.9789 15.25112594 36390 NUSHSAT 1 1 63211U 25052B 25312.24269655 .00025383 00000-0 99040-3 0 9995 2 63211 97.4190 204.7314 0005007 125.9265 234.2438 15.25895305 36332 TEVEL2-4 1 63213U 25052D 25312.68892632 .00027927 00000-0 11065-2 0 9998 2 63213 97.4107 204.7944 0003787 130.6451 229.5116 15.25365969 36398 TEVEL2-5 1 63214U 25052E 25312.43051112 .00022780 00000-0 90571-3 0 9994 2 63214 97.4109 204.5300 0003757 132.2096 227.9462 15.25292637 36358 TEVEL2-6 1 63215U 25052F 25311.97750473 .00023483 00000-0 93549-3 0 9998 2 63215 97.4113 204.0707 0003698 134.1571 225.9972 15.25221291 36287 TEVEL2-1 1 63217U 25052H 25312.21000384 .00022258 00000-0 89455-3 0 9997 2 63217 97.4086 204.1401 0003316 145.6351 214.5102 15.24938625 36318 TEVEL2-3 1 63218U 25052J 25312.66894806 .00027555 00000-0 11045-2 0 9991 2 63218 97.4083 204.5986 0003304 144.9505 215.1951 15.24980885 36389 TEVEL2-2 1 63219U 25052K 25312.21078684 .00022499 00000-0 90414-3 0 9991 2 63219 97.4087 204.1408 0003295 147.0397 213.1047 15.24939490 36314 TEVEL2-9 1 63237U 25052AD 25312.66634823 .00026356 00000-0 11020-2 0 9994 2 63237 97.4147 204.3449 0006285 185.4230 174.6940 15.23558351 36351 TEVEL2-7 1 63238U 25052AE 25312.48012500 .00020383 00000-0 85705-3 0 9993 2 63238 97.4151 204.1413 0006311 185.5970 174.5197 15.23419766 36324 TEVEL2-8 1 63239U 25052AF 25312.74789912 .00024852 00000-0 10441-2 0 9990 2 63239 97.4145 204.3921 0006380 185.2469 174.8702 15.23408397 36367 HYDRA-W 1 63490U 25052BL 25311.25088177 .00073274 00000-0 21125-2 0 9992 2 63490 97.4077 204.6824 0007440 173.8912 186.2423 15.35418373 36263 HADES-ICM (SO-125) 1 63492U 25052BN 25311.99087865 .00065054 00000-0 19526-2 0 9997 2 63492 97.4098 205.2407 0007748 178.1425 181.9848 15.34182164 36369 Dragonfly 1 65729U 98067XH 25312.21918802 .00126601 00000-0 14522-2 0 9995 2 65729 51.6309 311.0278 0004179 94.3168 265.8303 15.61151461 7756 RSP-03 1 65732U 98067XL 25312.23650742 .00104024 00000-0 12558-2 0 9999 2 65732 51.6306 311.1442 0006090 72.0138 288.1519 15.59903348 7769 GHS-01 1 65733U 98067XM 25312.71941551 .00160632 00000-0 17618-2 0 9993 2 65733 51.6318 308.3701 0004767 93.0954 267.0585 15.62176689 7849 BOTAN 1 65942U 98067XP 25312.23052238 .00095447 00000-0 13745-2 0 9995 2 65942 51.6318 312.6015 0004709 39.0396 321.0934 15.55235340 4481